Regional Weather Roundup
Issued by NWS

Home | Current Version | Previous Version | Graphics & Text | Print | Product List | Glossary On
Versions: 1 2 3 4 5 6 7 8 9 10 11 12 13 14 15 16 17 18 19 20 21 22 23 24 25 26 27 28 29 30 31 32 33 34 35 36 37 38 39 40 41 42 43 44 45 46 47 48 49 50
000
ASUS43 KIND 220309
RWRIN

WEATHER ROUNDUP FOR INDIANA
NATIONAL WEATHER SERVICE INDIANAPOLIS IN
1100 PM EDT SUN MAY 21 2017

NOTE: "FAIR" INDICATES FEW OR NO CLOUDS BELOW 12,000 FEET WITH NO
SIGNIFICANT WEATHER AND/OR OBSTRUCTIONS TO VISIBILITY.

* - STATION DOES NOT REPORT WEATHER SUCH AS PRECIPITATION OR FOG.

+ - STATION NOT QUALITY CONTROLLED BY THE NATIONAL WEATHER SERVICE.
    USE DATA WITH CAUTION...ESPECIALLY DEWPOINT AND RELATIVE
    HUMIDITY OBSERVATIONS.

INZ001>003-010>013-019-020-220400-
NORTHWEST INDIANA

CITY           SKY/WX    TMP DP  RH WIND       PRES   REMARKS
GARY /AIRPORT/ CLOUDY    54  37  54 W17G29    30.05R
KNOX *+        CLOUDY    52  34  50 W13       30.06R
LA PORTE +     CLOUDY    52  42  69 W10G18    30.05R
MICHIGAN CITY+ CLOUDY    52  39  62 W13       30.05R
MONTICELLO +   CLOUDY    52  45  77 W12       30.08R
RENSSELAER +   CLOUDY    52  41  66 SW10      30.09R
VALPARAISO     CLOUDY    53  40  61 W13G22    30.06R

$$

LMZ046-743>745-220400-
SOUTHERN LAKE MICHIGAN

STATION/POSITION TIME  TEMP    WIND        PRES    WAVE
                       AIR SEA DIR/SP/G            HT
                 (UTC) (F)     (DEG/KT/KT) (MB)    (FT)
BURNS HARBOR     0240   53     250/ 21/ 24 1017.6R
MICHIGAN CITY    0240   52     240/ 21/ 23   N/A
5NW MICH CITY    0300   52 53  260/ 16/ 19   N/A     4

$$

INZ004-005-014>016-021>024-220400-
NORTH CENTRAL INDIANA

CITY           SKY/WX    TMP DP  RH WIND       PRES   REMARKS
GOSHEN         CLOUDY    56  45  66 W13       30.01S
LOGANSPORT +   CLOUDY    52  45  76 W15G23    30.09R
PERU/GRISSOM   CLOUDY    55  48  76 W15G24    30.06R
ROCHESTER +    CLOUDY    55  46  71 W14       30.06R
SOUTH BEND     CLOUDY    52  45  77 W10       30.04R
WARSAW +       CLOUDY    55  45  67 W14G22    30.03R

$$

INZ006>009-017-018-025>027-220400-
NORTHEAST INDIANA

CITY           SKY/WX    TMP DP  RH WIND       PRES   REMARKS
ANGOLA *+      PTCLDY    57  48  72 W9        29.99R
AUBURN +       CLOUDY    59  46  63 W8        30.01R
FORT WAYNE     MOCLDY    58  48  69 W16       30.03R
HUNTINGTON +   CLOUDY    56  49  76 W10       30.04R
KENDALLVILLE + PTCLDY    55  48  76 W12       30.01R

$$

INZ028-029-035-036-043>045-051>053-220400-
WEST CENTRAL INDIANA

CITY           SKY/WX    TMP DP  RH WIND       PRES   REMARKS
CRAWFORDSVL +  CLOUDY    53  46  76 W15G25    30.13R
GREENCASTLE +  MOCLDY    55  45  67 W6        30.12R
LAFAYETTE      CLOUDY    53  44  71 W12G22    30.10R
TERRE HAUTE    MOCLDY    57  46  66 NW14G23   30.14R

$$

INZ030>032-037>040-046>048-054>057-064-065-220400-
CENTRAL INDIANA

CITY           SKY/WX    TMP DP  RH WIND       PRES   REMARKS
CP ATTERBURY + MOCLDY    61  50  67 NW8       30.09R
FISHERS *+     CLOUDY    57  52  82 W10       30.09
FRANKFORT +    CLOUDY    57  49  75 NW20      30.11R
GREENWOOD *+   CLOUDY    61  49  65 NW14      30.08R
INDIANAPOLIS   CLOUDY    59  48  67 W14G22    30.09R
-EAGLE CREEK   CLOUDY    60  48  64 W15       30.08R
KOKOMO +       CLOUDY    56  49  77 W15       30.08R
MARION +       CLOUDY    55  50  82 W13G23    30.07R
MT COMFORT *+  CLOUDY    59  48  67 W18       30.08R
SHELBYVILLE    CLOUDY    63  50  62 W15       30.07R
ZIONSVILLE +   CLOUDY    56  49  75 W12G18    30.10R

$$

INZ033-034-041-042-049-050-058-059-220400-
EAST CENTRAL INDIANA

CITY           SKY/WX    TMP DP  RH WIND       PRES   REMARKS
MUNCIE         CLOUDY    61  51  70 NW10      30.05R
RICHMOND +     CLEAR     61  52  72 NW14G23   30.05R

$$

INZ060-061-067>069-081>083-085>088-220400-
SOUTHWEST INDIANA

CITY           SKY/WX    TMP DP  RH WIND       PRES   REMARKS
EVANSVILLE     CLEAR     65  52  62 NW5       30.11R
HUNTINGBURG *+ PTCLDY    63  54  72 NW7       30.10R
WASHINGTON +   CLEAR     62  50  65 NW13      30.11R

$$

INZ062-063-066-070>080-084-089>092-220400-
SOUTH CENTRAL AND SOUTHEAST INDIANA

CITY           SKY/WX    TMP DP  RH WIND       PRES   REMARKS
BEDFORD +      CLEAR     63  50  63 NW8       30.08R
BLOOMINGTON    PTCLDY    60  50  69 VRB7      30.09R
MADISON *+     CLEAR     63  52  67 W3        30.08R
NORTH VERNON + PTCLDY    63  54  72 W8        30.07R
SEYMOUR +      CLEAR     64  54  68 NW12G17   30.07R

$$





USA.gov is the U.S. government's official web portal to all federal, state and local government web resources and services.